Preview of NWS' New Version of Forecast
This preview is not operational and should not be used for support decisions.

Regional Weather Roundup (RWR)

Issued by National Weather Service (NWS)

                            
000
ASUS46 KSEW 192110
RWRWA 

WASHINGTON REGIONAL WEATHER ROUNDUP
NATIONAL WEATHER SERVICE SEATTLE WA
200 PM PDT MON AUG 19 2019

NOTE:"FAIR" INDICATES FEW OR NO CLOUDS BELOW 12,000 FEET WITH NO 
SIGNIFICANT WEATHER AND/OR OBSTRUCTIONS TO VISIBILITY.

WAZ507-509-555>559-192200-
SEATTLE, TACOMA, EVERETT, AND VICINITY
  
CITY           SKY/WX    TMP DP  RH WIND       PRES   REMARKS
EVERETT        MOSUNNY   69  54  58 W8        30.04R                  
BOEING FIELD   PTSUNNY   71  52  50 CALM      30.02R                  
RENTON         PTSUNNY   72  55  55 VRB6      30.01S                  
SEATAC AIRPORT PTSUNNY   72  53  51 VRB5      30.03R                  
JBLM-MCCHORD   CLOUDY    74  58  58 CALM      30.02S                  
PUYALLUP       FAIR      75  54  46 VRB5      30.02S                  
BREMERTON      PTSUNNY   69  54  58 VRB7      30.03R                  
JBLM-FT LEWIS  MOSUNNY   74  60  63 W12       30.01S                  
TACOMA NARROWS PTSUNNY   70  54  56 NW8       30.03R                  
$$
 
WAZ001-503-506-510-514-515-192200-
NORTH INTERIOR
  
CITY           SKY/WX    TMP DP  RH WIND       PRES   REMARKS
BELLINGHAM     SUNNY     70  51  51 S8        30.03R                  
FRIDAY HARBOR  SUNNY     70  47  43 SW9       30.04R                  
EASTSOUND      MOSUNNY   70  52  52 VRB5G14   30.02R                  
PORT ANGELES   CLOUDY    67  50  54 NW7       30.05R                  
EDIZ HOOK      CLOUDY    63  56  78 CALM      30.04S                  
PORT TOWNSEND  CLOUDY    68  55  64 VRB6      30.03S                  
NAS WHIDBEY    PTSUNNY   72  51  47 W8        30.08R                  
ARLINGTON      CLOUDY    71  55  56 NW9       30.03R                  
BURLINGTON     MOSUNNY   73  54  49 SW7       30.03S                  
$$
 
WAZ020-022-039-040-504-511-512-192200-
SOUTHWEST INTERIOR
  
CITY           SKY/WX    TMP DP  RH WIND       PRES   REMARKS
SHELTON        PTSUNNY   74  52  46 MISG      29.99S                  
OLYMPIA        PTSUNNY   75  52  44 VRB6      30.01S                  
CHEHALIS       CLOUDY    73  55  53 SW5       30.03R                  
KELSO          MOSUNNY   73  56  54 W9        30.02S                  
VANCOUVER      SUNNY     75  52  44 NW8       29.99F                  
SCAPPOOSE, OR  SUNNY     75  54  47 N8        29.98F                  
PORTLAND, OR   MOSUNNY   75  52  44 W9        29.99F                  
$$
 
WAZ021-516-517-192200-
WASHINGTON COAST
  
CITY           SKY/WX    TMP DP  RH WIND       PRES   REMARKS
FORKS          CLOUDY    67  52  58 W7        30.03S                  
HOQUIAM        MOSUNNY   70  55  59 W13       30.03F                  
ASTORIA, OR    CLOUDY    67  55  65 N7        30.03S                  
$$
 
WAZ019-023-024-040-567>569-192200-
CASCADE MOUNTAINS AND COLUMBIA GORGE
  
CITY           SKY/WX    TMP DP  RH WIND       PRES   REMARKS
STAMPEDE PASS  SUNNY     66  46  48 VRB5      30.07R                  
TROUTDALE, OR  SUNNY     76  54  46 NW7       29.99F                  
HOOD RIVER, OR CLEAR     79  52  38 W12G18    29.92S                  
THE DALLES, OR SUNNY     84  50  30 NW15      29.87F                  
$$

WAZ026-027-041>044-520-521-192200-
EAST SLOPES
  
CITY           SKY/WX    TMP DP  RH WIND       PRES   REMARKS
OMAK           SUNNY     88  40  18 S9        29.85F                  
WENATCHEE      SUNNY     86  40  19 W9        29.86S                  
ELLENSBURG     SUNNY     86  41  20 NW24G31   29.89F                  
YAKIMA         SUNNY     86  48  26 S7        29.88S                  
SUNNYSIDE ARPT CLEAR     86  53  32 SE7       29.86F                  
YAKIMA TC      FAIR      87  40  19 S5        29.87S                  
$$

WAZ028-034-035-192200-
COLUMBIA BASIN
  
CITY           SKY/WX    TMP DP  RH WIND       PRES   REMARKS
EPHRATA        SUNNY     87  43  21 SW10      29.86F                  
MOSES LAKE     SUNNY     88  44  21 SW6       29.88S                  
PASCO          SUNNY     90  46  21 NW5       29.86F                  
RICHLAND ARPT  CLEAR     91  48  22 S5        29.85                   
HERMISTON, OR  SUNNY     88  50  27 SW9       29.87F                  
$$

WAZ036>038-192200-
NORTHEAST WASHINGTON
  
CITY           SKY/WX    TMP DP  RH WIND       PRES   REMARKS
SPOKANE GEIGER MOSUNNY   82  45  27 S12G17    29.93S                  
SPOKANE FELTS  MOSUNNY   84  43  23 VRB5      29.92S                  
FAIRCHILD AFB  MOSUNNY   82  44  26 SW10      29.94S                  
COEURDALENE,ID SUNNY     81  49  32 S6        29.94F                  
DEER PARK      MOSUNNY   83  45  26 W9        29.92F                  
$$

WAZ029>033-192200-
SOUTHEAST WASHINGTON
  
CITY           SKY/WX    TMP DP  RH WIND       PRES   REMARKS
PULLMAN        SUNNY     82  44  26 W7        29.98R                  
LEWISTON, ID   SUNNY     90  43  19 VRB5      29.88F                  
WALLA WALLA    SUNNY     86  47  25 SW13G20   29.90S                  
PENDLETON, OR  SUNNY     88  43  20 W13G24    29.90F                  
$$